Tracking 25689 objects as of 7-Jul-2022
HD Live streaming from Space Station
objects crossing your sky now

FENGYUN 1C DEB

Track FENGYUN 1C DEB now!
10-day predictions


NORAD ID: 35134
Int'l Code: 1999-025DLN
Perigee: 688.1 km
Apogee: 774.5 km
Inclination: 98.9 °
Period: 99.3 minutes
Semi major axis: 7102 km
RCS: 0.0125 m2 (small)
Launch date: May 10, 1999
Source: People's Republic of China (PRC)
Launch site: Taiyaun Space Center, China (TSC)

Note: This is SATELLITE DEBRIS
aabbcc
Your satellite tracking list
Your tracking list is empty




NASA's NSSDC Master Catalog

Two Line Element Set (TLE):
1 35134U 99025DLN 22186.52031489  .00003057  00000-0  77627-3 0  9999
2 35134  98.8668  88.7330 0060784 293.2491  66.2310 14.50459654713571
Source of the keplerian elements: AFSPC